Regional Weather Roundup
Issued by NWS

Home | Current Version | Previous Version | Graphics & Text | Print | Product List | Glossary On
Versions: 1 2 3 4 5 6 7 8 9 10 11 12 13 14 15 16 17 18 19 20 21 22 23 24 25 26 27
000
ASUS45 KBOU 240607
RWRCO

WEATHER ROUNDUP FOR COLORADO
NATIONAL WEATHER SERVICE DENVER/BOULDER CO
1200 AM MDT FRI OCT 24 2014

NOTE: "FAIR" INDICATES FEW OR NO CLOUDS BELOW 12000 FEET WITH NO
SIGNIFICANT WEATHER AND/OR OBSTRUCTIONS TO VISIBILITY.

COZ001>005-013-030-031-240700-
...NORTHWEST COLORADO...

CITY           SKY/WX    TMP DP  RH WIND       PRES   REMARKS
CRAIG          PTCLDY    41  34  76 E3        30.25R
HAYDEN         PTCLDY    46  28  49 SE5       30.25F
MEEKER         CLEAR     46  35  65 NE5       30.25S
MOUNT WERNER   NOT AVBL
STEAMBOAT SPGS PTCLDY    40  32  71 N5        30.27S
WALDEN         MOCLDY    50  21  32 S15G21    30.28F
$$

COZ006>008-011-240700-
...WEST CENTRAL VALLEYS...

CITY           SKY/WX    TMP DP  RH WIND       PRES   REMARKS
GRAND JUNCTION CLEAR     51  38  60 E6        30.21S
MONTROSE       CLEAR     47  35  63 SE9       30.29S
EAGLE          NOT AVBL
RIFLE          PTCLDY    44  38  79 CALM      30.26S
DELTA          CLEAR     52  36  54 NE8       30.26S
NUCLA          CLEAR     48  32  53 E12       30.33S
$$

COZ017>023-064>068-240700-
...SOUTHWEST COLORADO...

CITY           SKY/WX    TMP DP  RH WIND       PRES   REMARKS
DURANGO        CLEAR     43  36  76 CALM      30.35R
CORTEZ         CLEAR     39  30  70 E5        30.31F
PAGOSA SPRINGS CLEAR     41  35  79 CALM      30.41S
TELLURIDE      CLEAR     43  31  62 SE5       30.49S
WOLF CREEK PAS CLEAR     34  32  93 SW12        N/A  WCI  25
$$

COZ009-010-012-014-032>034-037-058>063-240700-
...CENTRAL COLORADO...

CITY           SKY/WX    TMP DP  RH WIND       PRES   REMARKS
ASPEN          CLEAR     38  28  67 SW6       30.35S
BUENA VISTA    CLEAR     37  28  70 W7        30.38R
COPPER MTN     CLEAR     41  14  33 SW7       30.55F
BERTHOUD PASS  FAIR      34  32  93 NW33G47   30.50F WCI  19
COTTONWOOD PAS CLEAR     50  14  23 W5        30.46S
GUNNISON       CLEAR     36  27  69 CALM      30.43R
KREMMLING      PTCLDY    37  30  75 CALM        N/A
LEADVILLE      CLEAR     34  22  61 CALM      30.44S
MONARCH PASS   CLEAR     36  23  60 SW24      30.66S
SALIDA         CLEAR     51  29  42 SW15      30.41F
SUNLIGHT       PTCLDY    39  28  65 CALM      30.51S
WILKERSON PASS NOT AVBL
$$

COZ069>075-240700-
...SAN LUIS VALLEY/SANGRE DE CRISTO MOUNTAINS...

CITY           SKY/WX    TMP DP  RH WIND       PRES   REMARKS
ALAMOSA        PTCLDY    37  28  70 CALM      30.36S
LA VETA PASS   PTCLDY    45  28  53 S16G29    30.44F
SAGUACHE       PTCLDY    43  28  56 N9        30.40S
$$

COZ035-036-038>040-240700-
...NORTHERN COLORADO FRONT RANGE...

CITY           SKY/WX    TMP DP  RH WIND       PRES   REMARKS
DENVER INTL AP CLOUDY    60  30  32 S14       30.13S
DMNS CITY PARK   N/A     56  33  40 SW3       30.12F
AURORA         MOCLDY    57  31  36 S14       30.15F
FRONT RANGE AP CLOUDY    59  32  36 S14       30.14F
ERIE MUNI ARPT CLOUDY    56  30  37 CALM      30.11S
BOULDER MUN AP CLOUDY    63  28  27 CALM      30.11S
CENTENNIAL     CLOUDY    60  28  29 S12       30.16F
BROOMFIELD     CLOUDY    68  21  17 SW14      30.14S
FORT COLLINS   MOCLDY    52  36  54 CALM      30.11F
LONGMONT       MOCLDY    55  36  48 CALM      30.12R
$$

COZ041-046-047-076>085-087-088-240700-
...PIKES PEAK/PALMER DIVIDE AND SOUTHERN FOOTHILLS...

CITY           SKY/WX    TMP DP  RH WIND       PRES   REMARKS
COLO. SPRINGS  MOCLDY    47  34  60 NE10      30.23F
A. F. ACADEMY  CLOUDY    45  32  58 N8        30.24F
ELLICOTT       NOT AVBL
FALCON         MOCLDY    45  32  59 CALM      30.26F
FORT CARSON    MOCLDY    50  33  50 NW8       30.20S
LIMON          CLEAR     51  35  54 CALM      30.16F
MONUMENT HILL  MOCLDY    46  30  53 S10       30.24F
TRINIDAD       CLEAR     52  34  50 W6        30.21S
$$

COZ042>045-048>051-090-091-240700-
...NORTHEAST COLORADO...

CITY           SKY/WX    TMP DP  RH WIND       PRES   REMARKS
GREELEY ARPT   CLOUDY    48  34  57 W5        30.10S
AKRON          CLEAR     57  36  45 SW13      30.09S
BURLINGTON     PTCLDY    56  49  77 SW10      30.10F
WRAY           MOCLDY    53  39  60 MISG      30.05S
STERLING       CLEAR     43  36  75 W7        30.06S
HOLYOKE        MOCLDY    54  36  50 SW7       30.03F
FORT MORGAN    CLEAR     49  32  51 W10       30.09S
$$

COZ086-089-092>099-240700-
...SOUTHEAST COLORADO...

CITY           SKY/WX    TMP DP  RH WIND       PRES   REMARKS
PUEBLO         PTCLDY    47  34  60 W6        30.15F
LA JUNTA       CLEAR     51  37  58 W10       30.11F
LAMAR          CLEAR     48  40  73 NW5       30.09F
SPRINGFIELD      N/A     48  46  93 SW7       30.14F
$$



USA.gov is the U.S. government's official web portal to all federal, state and local government web resources and services.